Location: NovaLab Observatory
(42.8167°N, 71.2500°W)
Time: 05:19:09
(UTC-05:00)

Daily predictions for brighter satellites

Satellite Brightness Start Highest point End
(mag) Time Altitude Azimuth Time Altitude Azimuth Time Altitude Azimuth
ATLAS CENTAUR R/B 3.5 03:20:02 67° ESE 03:20:02 67° ESE 03:31:48 10° SE
USA 234 3.8 03:16:26 10° ENE 03:22:44 49° SE 03:22:52 49° SE
ADEOS II 3.1 03:22:11 10° NNE 03:26:18 43° ENE 03:26:18 43° ENE
ADEOS Rocket 4.4 03:22:25 10° N 03:26:05 31° NNW 03:26:05 31° NNW
Lacrosse 5 3.3 03:30:46 33° E 03:30:46 33° E 03:34:23 10° ENE
Okean O Rocket 4.1 03:34:43 10° NNE 03:35:32 15° NNE 03:35:32 15° NNE
Cosmos 2369 Rocket 2.7 03:43:44 52° NNE 03:43:44 52° NNE 03:47:59 10° NNE
Cosmos 407 Rocket 4.0 03:47:33 30° N 03:50:08 58° ENE 03:55:22 10° SE
Cosmos 972 Rocket 4.3 03:51:14 63° NE 03:51:14 63° NE 03:55:55 10° NNE
Cosmos 2266 Rocket 4.0 03:48:48 10° N 04:02:24 - S 03:53:55 63° NNW
Cosmos 1833 4.4 03:59:41 20° NNW 04:03:40 68° ENE 04:09:14 10° SSE
GEOS 3 Rocket 4.4 04:05:36 10° SSE 04:08:45 37° S 04:08:45 37° S
Cosmos 1867 4.2 04:11:34 41° NNW 04:11:34 41° NNW 04:16:00 10° NNE
Cosmos 1190 Rocket 3.8 04:17:02 72° WSW 04:17:02 72° WSW 04:22:17 10° S
Lacrosse 5 rocket 3.7 04:21:15 12° N 04:22:12 13° NNE 04:23:53 10° NE
Okean 1-7 4.3 04:18:29 10° SSE 04:22:29 41° E 04:26:30 10° NNE
ATLAS 5 CENTAUR R/B 1.8 04:22:37 64° NW 04:22:40 64° NW 04:27:50 10° NNE
Sich 1 Rocket 3.4 04:19:07 10° N 04:23:41 82° W 04:28:10 10° S
ERS-2 4.1 04:22:00 10° N 04:23:21 21° N 04:23:21 21° N
Cosmos 1908 Rocket 3.4 04:21:58 10° N 04:26:27 81° W 04:30:55 10° S
Meteor 2-10 Rocket 3.6 04:22:12 10° S 04:27:10 70° E 04:32:12 10° NNE
Cosmos 2263 4.3 04:27:19 50° WNW 04:27:39 51° WNW 04:33:09 10° NNE
Cosmos 1943 Rocket 2.0 04:28:16 50° SW 04:29:37 69° WNW 04:35:11 10° NNE
CZ-4B R/B 3.5 04:24:31 10° N 04:29:51 46° WNW 04:30:05 46° WNW
Cosmos 1782 Rocket 3.9 04:27:31 10° N 04:31:59 68° E 04:36:24 10° SSE
Cosmos 1624 Rocket 4.3 04:33:05 45° WNW 04:33:10 45° WNW 04:38:17 10° N
Okean-O 2.5 04:28:49 10° NNE 04:33:17 89° W 04:35:44 26° SSW
Cosmos 2056 Rocket 3.7 04:34:28 46° WNW 04:34:33 46° WNW 04:39:35 10° N
Tiangong 1 2.4 04:36:11 32° SE 04:36:11 32° SE 04:38:22 10° E
Meteor 1-14 Rocket 4.3 04:31:22 10° N 04:37:14 81° E 04:42:56 10° SSE
CZ-4C R/B 2.6 04:33:26 17° SSW 04:37:29 59° ESE 04:43:17 10° NE
Cosmos 1244 Rocket 4.3 04:32:05 10° N 04:38:20 80° W 04:44:30 10° S
SL-12 R/B (Aux Motor) 4.4 04:39:43 72° NW 04:39:57 79° NNE 04:42:16 10° ESE
SKYMED 2 4.1 04:39:53 10° SSE 04:44:08 59° ENE 04:48:25 10° N
Cosmos 1954 Rocket 3.9 04:38:49 10° NNW 04:44:10 86° WSW 04:49:29 10° SSE
Cosmos 1782 4.5 04:41:39 10° SSE 04:45:15 35° E 04:48:54 10° NNE
NOAA 6 4.1 04:43:15 10° NNE 04:48:27 77° ESE 04:53:34 10° S
Cosmos 1420 Rocket 4.4 04:46:23 10° S 04:51:29 65° ESE 04:56:37 10° NNE
Okean 2 Rocket 3.0 04:50:11 10° N 04:54:36 87° ENE 04:59:00 10° S
Meteor 1-26 Rocket 4.2 04:54:24 10° SSW 05:00:01 59° WNW 05:05:34 10° N
Cosmos 1606 4.1 04:58:44 10° SSE 05:02:22 41° E 05:06:04 10° NNE
Thor Agena Rocket 3.7 04:58:54 10° S 05:03:55 47° W 05:08:56 10° NNW
S3M 4.0 04:58:50 10° S 05:05:12 83° W 05:11:31 10° N
USA 234 3.5 04:59:26 10° NE 05:05:47 55° NNW 05:10:14 20° WSW
ADEOS II 3.2 05:02:36 10° NNW 05:06:41 23° WNW 05:07:16 23° WNW
Cosmos 1703 Rocket 3.9 05:04:08 18° SW 05:06:58 40° WNW 05:11:06 10° N
Meteor 1-25 Rocket 4.2 05:01:44 10° NNW 05:07:35 81° W 05:13:25 10° S
Cosmos 2297 Rocket 4.3 05:03:13 10° N 05:07:56 26° NE 05:12:35 10° ESE
Lacrosse 5 2.3 05:10:01 24° W 05:12:39 44° NW 05:17:31 10° NE
Cosmos 1553 Rocket 3.9 05:06:58 10° SSW 05:13:06 70° W 05:19:25 10° N
Meteor 1-31 Rocket 3.6 05:10:19 10° N 05:13:43 29° WNW 05:14:57 24° WSW
Cosmos 2151 Rocket 4.0 05:09:13 10° N 05:13:43 66° E 05:18:11 10° SSE
Cosmos 1452 Rocket 3.7 05:10:49 10° SW 05:15:55 48° WNW 05:21:03 10° N
CZ-4 R/B 4.0 05:15:04 10° NE 05:18:32 25° E 05:21:58 10° SSE
Cosmos 2219 3.1 05:15:28 10° NNW 05:21:08 70° WSW 05:26:43 10° SSE
Cosmos 1741 Rocket 3.9 05:21:22 10° NNW 05:26:37 78° WSW 05:31:51 10° SSE
Cosmos 2369 Rocket 3.8 05:25:34 14° WNW 05:27:12 15° NW 05:30:30 10° N
Cosmos 2227 Rocket 3.4 05:22:36 10° NNW 05:28:04 45° ENE 05:33:28 10° SE
Meteor 1-10 Rocket 4.2 05:23:54 10° S 05:29:28 87° W 05:35:09 10° N
Meteor 2-11 Rocket 4.4 05:25:14 10° S 05:31:20 83° W 05:37:30 10° N
COSMO-SKYMED 1 2.9 05:28:08 10° S 05:32:13 41° W 05:36:21 10° NNW
ATLAS 3B R/B 3.3 05:25:44 10° SSW 05:33:14 67° ESE 05:40:29 10° NE
Cosmos 1656 Rocket 4.1 05:30:57 10° SW 05:36:21 44° WNW 05:41:48 10° NNE
USA 81 4.1 05:36:14 10° SSW 05:41:24 57° W 05:46:37 10° N
Cosmos 1709 Rocket 4.1 05:37:16 10° N 05:43:24 83° E 05:49:33 10° S
Cosmos 1140 Rocket 4.4 05:48:28 10° NW 05:52:50 27° W 05:57:12 10° SSW
Abrixas 4.0 05:50:55 10° WNW 05:53:23 25° N 05:55:52 10° ENE
Cosmos 1536 3.8 05:50:37 10° N 05:54:33 52° E 05:58:27 10° SSE
Cosmos 2315 Rocket 4.1 05:48:24 10° S 05:54:47 90° E 06:01:11 10° N
SMAP 3.8 05:54:59 10° NNE 05:59:37 61° ESE 06:04:12 10° S
Okean 1-7 4.5 05:57:27 10° WSW 06:00:16 17° WNW 06:03:06 10° NNW
